Weather History for KLLJ - December, 2013

Change the Weather History Date:

Monday, December 9, 2013

  Actual Average Record
Temperature  
Mean Temperature -3 °F 19 °F  
Max Temperature 9 °F 28 °F 57 °F (1933)
Min Temperature -15 °F 10 °F -29 °F (1919)
Degree Days  
Heating Degree Days 68 46  
Month to date heating degree days 514 401  
Since 1 July heating degree days 2440 2444  
Cooling Degree Days 0 0  
Month to date cooling degree days 0 0  
Year to date cooling degree days 420 248  
Moisture  
Dew Point -7 °F    
Average Humidity 74    
Maximum Humidity 87    
Minimum Humidity 60    
Precipitation  
Precipitation T in 0.02 in 0.14 in (1969)
Month to date precipitation 0.18 0.22  
Year to date precipitation 4.83 9.54  
Sea Level Pressure  
Sea Level Pressure 30.62 in    
Wind  
Wind Speed 1 mph (North)    
Max Wind Speed 6 mph    
Max Gust Speed 7 mph    
Visibility 10 miles    
Events Snow    
T = Trace of Precipitation, MM = Missing Value Source: NWS Daily Summary

Daily Weather History Graph

Daily Weather History Graph

Search for Another Location

Airport or City:

Trip Planner

Search our weather history database for the weather conditions in past years. The results will help you decide how hot, cold, wet, or windy it might be!

Date:

Astronomy

Dec. 09, 2013 Rise Set
Actual Time 8:01 AM MST 4:56 PM MST
Civil Twilight 7:28 AM MST 5:30 PM MST
Nautical Twilight 6:51 AM MST 6:06 PM MST
Astronomical Twilight 6:16 AM MST 6:42 PM MST
Moon 12:43 PM MST (12/9) 12:03 AM MST (12/9)
Length of Visible Light 10h 01m
Length of Day
8h 55m
First Quarter, 52% of the Moon is Illuminated
Dec 9
First Quarter
Dec 17
Full
Dec 25
Last Quarter
Jan 1
New
Jan 7
First Quarter

Hourly Weather History & Observations

Time (MST) Temp. Windchill Dew Point Humidity Pressure Visibility Wind Dir Wind Speed Gust Speed Precip Events Conditions
12:55 AM -9.9 °F - -16.1 °F 74% 30.57 in 10.0 mi Calm Calm - N/A   Clear
1:55 AM -13.0 °F - -17.0 °F 82% 30.60 in 10.0 mi Calm Calm - N/A   Clear
2:55 AM -14.1 °F - -18.0 °F 82% 30.61 in 10.0 mi Calm Calm - N/A   Partly Cloudy
3:55 AM -11.9 °F - -17.0 °F 78% 30.63 in 10.0 mi Calm Calm - N/A   Partly Cloudy
4:55 AM -8.0 °F -16.9 °F -13.0 °F 79% 30.62 in 10.0 mi NNE 3.5 mph - N/A   Overcast
5:55 AM -7.1 °F - -11.0 °F 83% 30.65 in 10.0 mi Calm Calm - N/A   Overcast
6:55 AM -6.0 °F - -11.0 °F 79% 30.66 in 10.0 mi Calm Calm - N/A   Overcast
7:55 AM -5.1 °F - -9.9 °F 80% 30.66 in 7.0 mi Calm Calm - 0.00 in Snow Light Snow
8:55 AM -4.0 °F - -9.0 °F 79% 30.68 in 8.0 mi Calm Calm - 0.00 in   Overcast
9:55 AM -2.0 °F - -7.1 °F 79% 30.68 in 10.0 mi Calm Calm - N/A   Overcast
10:55 AM 1.0 °F -8.7 °F -5.1 °F 75% 30.68 in 10.0 mi NNE 4.6 mph - N/A   Overcast
11:55 AM 3.9 °F -5.3 °F -6.0 °F 64% 30.68 in 10.0 mi NNW 4.6 mph - N/A   Mostly Cloudy
12:55 PM 6.1 °F - -5.1 °F 60% 30.64 in 10.0 mi Calm Calm - N/A   Partly Cloudy
1:55 PM 7.0 °F - -4.0 °F 61% 30.63 in 10.0 mi Calm Calm - N/A   Scattered Clouds
2:55 PM 7.0 °F 0.1 °F -2.0 °F 67% 30.62 in 10.0 mi NNW 3.5 mph - N/A   Overcast
3:55 PM 9.0 °F - -2.0 °F 61% 30.61 in 10.0 mi Calm Calm - N/A   Overcast
4:55 PM 8.1 °F - -0.9 °F 67% 30.60 in 10.0 mi Calm Calm - N/A   Overcast
5:55 PM 8.1 °F - -0.9 °F 67% 30.59 in 10.0 mi Calm Calm - N/A   Overcast
7:55 PM 8.1 °F - -0.0 °F 70% 30.57 in 10.0 mi Calm Calm - N/A   Overcast
8:55 PM 9.0 °F - -0.0 °F 67% 30.56 in 10.0 mi Calm Calm - N/A   Overcast
9:55 PM 8.1 °F - 1.0 °F 73% 30.55 in 10.0 mi Calm Calm - N/A   Overcast
10:55 PM 3.9 °F - -0.9 °F 80% 30.54 in 8.0 mi Calm Calm - N/A   Overcast
11:55 PM 3.0 °F - -0.9 °F 84% 30.52 in 9.0 mi Calm Calm - N/A   Overcast